Wind_Speed
14 14 14 14 13 12 12 12 12 12 12 11 10 9 9 7 7 7 9 9 9 8 8 8 9 10 10 11 10 11 11 11 12 12 12 11 11 9 9 12 14 15 16 18 18 18 19 19 18 16 15 13 11 9 8 8 10 11 13 14 13 12 12 11 10 9 6 4 4 2 3 5 6 6 7 9 9 8 9 10 11 14 15 15 16 17 19 18
14 14 14 14 14 13 12 12 11 11 10 10 10 9 9 8 7 7 8 9 9 8 8 8 9 10 11 11 11 11 11 12 12 13 13 13 12 10 9 11 11 12 14 15 15 15 16 17 17 17 15 14 12 10 9 10 10 11 12 12 11 10 10 9 9 9 7 4 3 3 2 6 6 5 6 7 7 7 8 11 14 15 16 18 18 19 20 18
14 14 14 14 14 14 13 12 11 10 10 9 9 9 9 9 8 7 7 8 8 8 8 8 9 10 11 11 11 11 11 12 13 13 14 14 13 11 10 11 11 11 12 14 15 15 16 16 17 17 16 15 14 11 11 11 10 10 10 10 10 10 10 9 9 9 8 6 4 3 2 5 6 7 7 6 7 7 9 12 13 13 17 20 18 20 21 18
15 15 14 14 15 15 14 13 12 11 10 10 9 9 8 8 8 8 7 7 7 7 8 8 9 10 10 10 11 11 11 12 13 14 14 15 15 13 12 11 11 12 14 17 18 19 20 20 20 19 18 17 16 14 12 11 10 10 10 10 10 9 9 8 8 8 9 8 6 5 3 3 6 7 8 7 6 6 9 10 9 9 13 17 18 20 20 17
17 16 15 15 15 15 15 14 13 12 11 11 10 9 9 8 9 8 7 7 6 6 7 8 9 9 10 10 10 11 11 11 12 14 14 16 16 15 14 12 12 13 14 18 20 22 23 22 23 22 21 20 18 16 13 12 11 10 10 10 8 7 7 6 6 7 7 7 6 5 3 3 5 6 8 8 6 6 9 8 9 10 10 13 15 18 19 16
17 16 16 16 16 16 15 14 14 13 12 12 11 10 10 9 9 9 8 7 6 6 7 8 8 9 9 9 10 10 10 10 11 14 14 16 18 17 16 14 13 13 14 16 19 21 22 22 23 23 23 21 20 17 14 13 12 11 11 8 6 6 6 4 5 6 6 5 5 4 4 5 5 5 8 10 8 9 11 8 9 13 12 11 13 16 17 15
16 16 16 16 16 16 16 15 14 13 13 13 12 11 10 9 9 9 9 8 6 5 6 8 8 8 8 8 9 10 11 12 12 14 15 17 18 19 18 16 14 13 13 14 16 18 20 20 21 21 21 21 20 18 16 16 15 13 11 7 7 7 5 3 3 4 4 3 3 5 5 5 6 6 8 10 9 11 12 9 9 14 15 14 14 15 16 15
15 16 16 16 16 16 16 15 14 14 14 13 13 12 11 10 9 10 11 9 8 6 7 8 8 8 8 8 9 10 12 13 13 14 16 17 19 20 19 17 16 14 13 13 14 15 18 19 19 19 20 21 19 17 17 18 17 15 11 9 10 8 5 3 2 3 3 2 3 5 5 5 7 8 8 8 9 10 11 10 10 13 16 16 16 17 17 16
16 16 16 16 16 16 16 15 14 14 14 14 14 14 12 11 10 11 12 11 10 8 8 8 8 8 7 7 8 10 12 14 14 14 16 17 19 21 20 19 17 16 14 13 13 14 16 17 17 18 19 19 18 18 19 19 17 16 13 12 12 8 5 3 2 2 2 2 4 5 5 5 7 9 9 9 9 9 10 10 10 12 15 16 17 18 18 16
17 16 16 16 16 16 16 16 15 14 14 14 14 14 13 12 11 11 12 12 11 10 9 9 9 8 7 7 7 10 13 15 15 15 16 17 18 20 21 20 19 18 16 14 13 13 14 15 15 16 17 19 19 20 21 20 19 17 15 14 12 8 6 3 2 2 2 3 4 4 4 4 5 7 8 8 8 9 9 10 10 12 14 15 18 19 20 18
17 17 17 16 16 16 17 16 16 16 15 15 14 13 13 13 13 13 13 13 12 12 11 10 10 9 8 7 7 9 13 14 15 15 16 17 18 19 20 21 21 20 18 15 13 13 14 15 16 17 18 20 21 21 22 22 20 18 17 16 12 9 6 4 4 3 3 4 3 3 4 3 4 4 6 6 6 7 8 8 9 11 14 15 17 20 22 21
18 18 18 17 17 17 17 17 17 17 17 16 14 13 13 13 13 14 14 13 13 13 12 12 11 10 9 8 7 9 12 14 15 16 17 17 17 18 19 21 22 22 19 16 14 14 15 16 17 18 19 21 21 19 20 22 20 18 18 16 13 9 6 5 5 3 4 5 3 2 2 2 4 4 5 5 6 7 7 8 9 11 14 16 18 21 23 23
18 18 18 18 18 17 17 17 17 17 18 17 15 14 14 13 13 14 14 13 13 13 14 13 12 11 10 9 9 9 11 14 15 16 17 17 16 16 18 20 22 23 22 19 17 16 16 17 17 19 19 20 20 18 17 21 20 18 18 15 11 8 5 5 5 2 3 5 5 4 2 3 4 3 4 4 6 7 7 8 9 10 13 17 20 21 22 23
18 18 18 17 17 18 18 17 17 18 18 18 16 15 15 13 13 14 14 13 13 13 14 14 13 11 11 10 10 10 12 14 15 16 16 16 16 16 16 18 21 22 23 22 21 20 18 17 18 19 19 18 21 19 15 17 20 17 16 15 11 7 5 5 4 3 2 4 6 6 5 1 2 2 2 2 4 5 6 7 8 9 12 17 20 21 22 22
18 18 17 17 17 17 18 17 17 18 18 17 16 16 15 14 13 14 14 13 13 13 14 14 13 12 11 11 11 12 13 14 16 16 16 15 16 17 17 18 20 22 23 24 23 23 22 20 19 20 19 19 21 21 15 13 16 18 13 10 10 8 7 5 4 4 4 4 7 8 6 3 2 3 2 1 1 3 5 7 8 8 10 15 20 22 22 21
17 17 17 17 17 17 17 17 17 17 17 16 15 15 15 14 13 14 14 13 12 13 13 13 12 12 11 11 13 13 13 14 15 17 17 17 17 17 19 20 20 22 25 25 24 24 24 23 22 21 21 20 21 21 18 11 11 17 13 7 8 9 7 5 4 5 4 5 7 8 6 3 2 4 3 3 2 2 4 6 8 8 8 13 18 22 22 21
16 16 17 17 16 16 16 16 16 17 17 15 14 14 13 13 13 13 13 13 12 13 13 13 12 12 12 13 14 15 14 14 15 17 19 19 18 18 19 20 20 22 25 26 24 24 24 24 23 23 23 22 21 22 18 12 10 13 14 10 7 9 7 5 5 6 5 6 7 9 10 7 4 3 2 2 3 3 2 3 5 7 8 10 15 21 23 22
16 16 17 17 16 16 16 16 16 16 16 15 13 12 12 12 12 12 12 12 12 13 13 12 12 13 13 13 16 16 16 15 14 16 18 19 19 19 20 21 21 22 25 26 25 25 25 24 24 24 25 23 22 23 18 12 12 11 12 12 9 8 7 5 5 6 7 7 8 10 11 9 8 7 6 5 4 4 4 3 3 4 6 8 12 19 23 22
17 17 17 16 16 16 16 15 15 16 16 14 12 12 11 10 11 11 11 12 12 12 12 12 14 16 14 15 19 17 16 16 14 14 16 18 18 19 20 21 22 22 23 25 26 25 25 25 26 26 27 26 23 24 19 12 12 12 12 13 12 10 8 7 6 5 6 7 9 11 10 7 8 10 10 9 9 8 7 6 4 3 5 8 10 16 23 24
18 18 18 17 17 17 16 16 16 16 15 14 12 11 10 10 9 9 11 11 12 13 13 12 15 17 15 18 21 18 16 16 14 14 14 15 16 18 20 21 22 22 21 24 26 26 26 26 29 29 29 28 22 21 21 15 12 13 12 13 14 13 10 9 6 4 5 5 5 8 9 6 5 7 8 10 13 13 11 9 6 3 2 4 7 12 20 25
18 18 18 18 18 18 17 16 16 16 15 13 11 10 10 9 8 9 11 11 12 13 14 13 14 17 17 20 22 19 17 16 14 13 14 15 16 17 19 19 20 21 21 22 24 26 26 27 29 30 26 24 20 17 19 19 15 12 12 12 13 14 13 10 7 4 5 6 4 5 8 6 5 5 7 9 12 13 12 11 9 6 2 3 4 8 15 22
19 19 18 18 18 18 17 17 17 16 15 13 11 9 9 9 8 8 9 10 10 11 14 14 15 17 18 20 22 20 17 16 13 13 14 14 14 16 19 19 18 20 21 22 24 26 27 29 29 26 22 20 17 15 16 18 18 15 12 12 12 14 14 10 9 8 5 5 6 7 10 9 6 6 7 8 9 8 8 9 9 9 9 5 3 4 10 19
20 19 19 18 18 18 18 17 16 16 15 13 10 7 8 8 7 7 7 8 8 9 12 14 16 19 20 20 21 20 18 16 13 12 13 11 10 14 17 18 17 18 20 22 25 27 26 27 28 24 21 19 16 14 14 15 17 18 16 13 12 14 14 8 7 10 6 5 7 8 11 11 9 9 9 10 10 10 9 7 7 9 11 9 6 3 6 15
22 21 20 19 18 17 17 16 16 16 14 12 8 6 6 6 6 4 4 5 4 5 11 15 18 21 21 20 18 19 17 15 13 11 11 9 9 14 16 16 16 17 20 21 22 25 23 23 25 25 21 19 16 14 13 12 13 16 18 17 16 16 15 10 7 8 7 5 6 8 10 12 11 11 11 11 12 12 11 9 9 9 9 12 13 9 6 10
23 22 21 20 19 17 17 16 14 13 12 9 7 4 4 5 4 2 3 4 3 5 9 14 19 22 21 19 17 18 16 13 13 12 10 8 8 13 16 15 15 16 19 19 18 20 21 18 21 24 23 19 16 15 14 13 11 12 15 18 18 17 16 13 9 7 6 5 3 3 5 6 6 8 9 11 12 12 12 12 10 9 10 13 15 13 9 8
23 22 20 19 18 17 15 13 12 11 10 7 5 3 3 4 3 3 4 6 6 6 8 14 19 21 20 18 17 16 15 14 15 13 11 9 9 12 15 14 14 15 18 19 16 16 20 18 15 19 21 20 17 16 16 15 12 11 13 14 16 17 17 16 12 7 5 5 4 1 2 4 3 4 6 9 11 12 13 12 10 9 11 13 15 15 13 10
23 21 18 17 16 15 13 11 10 9 7 5 3 3 4 4 4 6 6 6 6 5 9 14 16 18 17 16 17 14 13 16 17 14 11 11 9 10 14 13 12 14 16 19 16 14 19 20 16 14 15 17 18 17 17 16 13 13 14 11 8 11 14 13 12 8 5 5 5 2 2 4 3 4 5 6 8 10 11 12 11 9 10 12 14 16 14 12
22 20 17 16 15 13 11 9 8 6 4 3 3 3 5 6 7 9 5 3 4 7 12 12 11 16 15 15 17 13 13 17 16 15 13 12 10 9 12 11 10 12 14 17 15 12 16 18 18 16 13 13 16 17 17 16 15 15 14 9 5 6 7 9 10 9 6 5 5 4 3 2 2 5 5 4 3 6 8 11 13 13 12 11 13 14 14 14
21 18 17 16 15 12 10 7 6 4 2 2 3 5 6 8 10 9 3 2 5 7 10 10 11 15 15 17 16 11 16 17 13 16 14 11 10 9 11 11 9 10 10 12 12 10 14 14 16 17 15 13 13 14 16 15 15 15 12 9 8 7 8 9 10 8 4 4 7 8 5 3 3 9 6 2 3 5 6 8 11 12 12 14 14 13 14 13
20 19 17 16 13 10 8 6 4 2 0 3 5 7 9 10 10 5 2 4 5 7 10 11 13 16 18 19 14 11 17 15 12 17 14 10 9 8 11 13 11 11 10 12 11 10 13 12 11 14 13 12 12 12 14 14 14 13 10 9 8 7 9 10 10 7 4 4 10 10 6 5 1 9 11 7 7 10 11 10 11 10 10 13 14 14 15 13
20 18 16 13 10 8 6 5 3 1 3 5 8 11 11 10 6 1 2 6 7 8 10 9 13 18 18 17 14 13 14 12 14 16 12 9 8 7 12 15 14 11 11 12 10 9 12 10 9 11 10 11 13 12 11 12 14 13 10 11 9 6 7 6 7 7 5 4 9 11 7 5 3 8 12 9 8 11 14 13 12 11 9 9 11 15 17 16
19 16 13 10 8 5 5 4 2 2 5 8 11 12 11 8 5 5 5 7 6 6 8 12 16 16 14 15 15 13 11 12 14 14 11 8 8 10 13 15 17 14 11 12 10 8 10 10 9 9 9 11 11 11 11 11 13 13 12 13 10 6 6 5 5 5 5 5 6 10 9 7 9 11 12 9 8 10 13 12 11 12 10 8 11 15 17 18
16 13 10 8 6 4 4 3 2 4 7 10 11 9 8 6 5 8 6 5 5 7 11 14 15 12 12 15 15 13 12 13 12 11 10 7 9 13 12 13 19 16 11 13 12 9 10 10 9 8 8 10 10 10 12 12 12 13 14 15 11 6 6 6 4 2 5 7 7 9 8 8 10 11 13 9 9 10 11 11 11 11 10 9 9 11 14 17
13 10 7 6 5 4 4 3 4 5 8 9 8 9 10 9 7 9 10 8 8 10 11 12 13 13 13 14 15 15 14 12 12 11 10 9 11 13 10 12 17 15 12 13 11 10 9 7 7 8 7 7 9 11 12 12 13 13 14 14 12 8 5 5 6 5 6 8 8 9 6 8 12 10 14 9 8 8 9 11 12 13 12 10 9 10 13 16
11 8 7 7 6 5 5 5 6 6 8 9 9 13 14 10 7 10 11 10 11 11 11 12 13 14 14 15 16 16 14 14 14 12 12 12 13 13 12 12 12 13 14 12 9 9 9 8 8 8 7 6 7 9 11 11 12 12 13 13 11 10 6 4 8 10 9 9 8 8 5 8 16 10 11 8 6 4 4 8 11 13 12 10 9 11 13 15
9 8 9 8 7 5 6 8 8 9 10 6 8 15 16 11 8 10 9 9 10 12 13 13 13 14 16 16 15 14 13 14 14 13 13 13 14 14 13 12 11 11 12 11 10 9 8 9 9 8 7 6 6 7 10 12 10 10 12 13 12 12 8 5 8 10 11 9 5 6 6 6 15 9 5 6 3 3 4 5 8 10 10 9 9 10 13 15
8 7 8 7 7 6 6 8 7 7 7 1 7 16 16 11 11 11 10 9 8 11 13 12 12 13 14 14 14 13 12 13 13 13 13 12 11 12 13 12 11 10 10 10 10 9 10 11 9 7 6 5 5 5 7 11 12 10 10 14 13 11 11 8 5 7 9 7 4 6 8 8 6 3 6 5 3 4 3 2 4 6 7 7 8 10 13 15
7 6 6 5 6 7 7 7 6 5 5 3 12 17 14 12 11 9 8 8 6 6 8 8 8 10 13 15 16 14 13 12 12 12 12 11 9 10 11 11 11 10 10 9 9 10 12 10 7 6 5 5 5 4 5 7 11 11 10 14 12 7 9 11 6 4 7 6 4 6 7 10 9 7 10 9 7 7 5 4 2 3 5 5 7 9 13 16
6 5 5 4 6 6 7 7 7 6 4 5 14 15 13 13 11 9 8 6 6 4 3 7 8 9 13 15 16 15 12 11 12 12 11 9 8 8 8 9 10 9 9 9 9 9 9 6 4 4 4 4 5 6 4 4 7 9 9 12 12 7 8 13 9 4 4 5 5 4 4 7 9 8 10 13 13 12 10 8 5 4 4 4 6 8 12 15
5 4 3 3 4 5 6 6 6 6 3 7 13 12 11 12 12 10 10 7 5 4 3 6 9 11 12 13 15 15 12 10 12 12 10 9 10 8 7 8 8 8 7 7 7 6 6 5 4 3 3 5 6 6 6 5 5 8 7 10 12 9 9 12 10 6 3 3 4 5 4 5 6 6 9 12 14 14 13 11 10 8 7 6 6 7 9 12
3 4 2 1 2 3 4 4 4 4 5 9 11 10 10 11 10 10 10 9 6 5 6 5 7 10 11 11 12 13 12 13 13 11 11 13 12 9 8 8 6 5 5 5 4 4 4 5 5 5 6 9 10 9 9 7 6 6 8 9 12 12 12 9 6 6 4 3 4 6 6 5 4 5 9 12 12 12 12 12 13 12 10 9 7 7 9 10
2 2 1 0 1 2 3 3 4 4 7 10 9 8 8 8 7 8 9 9 6 6 7 6 7 9 9 10 11 12 13 14 13 12 13 13 12 10 10 8 6 5 4 5 4 4 5 6 8 10 11 13 12 10 10 9 7 6 7 9 10 13 14 9 4 7 6 6 8 9 8 6 5 6 8 10 10 10 10 11 13 13 12 11 9 8 9 10
1 1 1 2 1 2 3 5 6 5 6 8 8 7 5 4 4 5 6 6 5 5 5 5 7 8 8 9 9 10 12 12 11 13 14 13 12 11 10 8 6 5 4 5 5 5 5 6 9 13 12 11 9 8 8 9 8 6 6 8 9 10 12 9 9 12 9 7 9 8 6 5 4 6 6 9 9 7 8 8 10 12 13 12 11 10 8 10
3 2 1 2 1 1 3 5 6 6 7 7 5 4 3 3 3 2 2 3 4 4 4 5 7 7 8 9 7 7 7 8 10 12 13 13 12 11 10 8 6 5 4 3 4 4 3 4 9 11 8 5 4 4 5 6 6 5 6 7 8 9 10 8 11 14 8 6 7 5 5 7 5 5 7 8 8 7 6 6 7 9 11 12 13 12 10 9
4 4 3 2 1 1 2 5 6 6 6 5 3 3 3 3 1 2 3 3 4 4 3 5 6 6 8 8 5 4 3 5 9 12 12 11 10 10 9 7 5 4 3 3 2 3 3 5 7 6 4 3 3 4 6 7 6 6 6 7 7 9 10 9 10 9 6 8 9 7 8 10 7 6 6 6 6 7 7 6 6 8 10 12 13 14 13 11
5 4 4 3 2 2 3 6 6 4 3 2 2 3 4 4 2 3 4 3 4 4 4 5 5 5 5 4 3 3 4 4 7 9 10 9 8 8 7 5 5 4 3 2 0 1 2 4 5 5 6 5 5 7 10 10 7 5 5 6 7 8 9 9 8 7 9 12 11 9 11 11 7 6 6 4 5 6 6 5 4 5 8 11 12 14 15 15
5 5 5 4 3 3 3 5 4 3 1 1 2 2 4 5 4 4 3 2 2 3 4 6 6 4 3 3 3 4 4 5 5 7 9 9 7 7 6 5 5 4 3 3 3 2 1 2 3 5 5 6 7 9 11 10 8 5 4 4 5 5 7 8 8 9 11 11 8 8 9 8 7 7 5 3 3 3 4 4 2 3 7 11 11 12 13 15
6 6 6 5 4 3 3 3 3 2 2 2 1 1 2 3 3 3 3 2 1 2 3 4 4 3 3 3 3 3 4 6 6 7 8 7 7 7 6 6 6 6 5 5 5 3 2 3 5 5 5 6 8 9 8 8 7 6 4 3 4 5 5 7 9 11 11 8 7 9 8 6 8 8 5 2 1 1 2 3 3 5 9 11 10 10 11 12
6 5 6 5 5 4 4 2 1 1 1 0 1 2 2 1 1 1 2 1 1 2 2 3 3 3 4 4 4 3 5 6 7 8 7 7 7 8 7 7 7 7 7 6 5 4 3 4 6 7 7 7 7 7 7 6 6 5 4 4 4 5 6 7 8 9 9 7 8 10 7 4 7 9 7 4 1 2 3 4 5 6 8 9 10 10 10 11
5 5 6 6 6 5 6 6 4 3 2 2 1 2 2 2 3 3 3 2 3 3 3 3 3 4 5 5 5 5 6 7 7 8 8 8 9 9 9 9 9 8 7 6 5 5 5 6 8 8 8 7 7 6 6 5 5 4 4 4 5 5 7 8 8 8 8 7 7 7 5 4 6 9 8 6 4 4 5 6 6 6 7 7 9 10 10 11
5 6 6 7 7 7 7 7 6 5 3 2 1 2 2 3 3 4 3 2 3 4 3 3 3 4 5 6 6 7 8 8 8 9 10 10 11 11 11 11 10 9 8 7 7 7 6 8 10 9 7 6 7 6 4 4 4 4 5 6 6 7 7 8 9 9 9 8 7 6 4 5 7 8 8 7 7 7 7 9 9 9 9 8 9 9 10 11
6 6 6 6 7 7 8 8 7 6 4 3 1 0 1 2 2 3 2 1 3 3 3 2 2 2 2 3 5 6 7 7 7 8 9 10 11 11 12 12 12 10 9 8 8 8 7 9 12 10 7 7 7 6 4 4 3 4 7 8 8 8 8 7 7 8 9 9 9 7 6 7 8 7 7 7 8 8 9 11 12 13 13 12 12 11 11 11
Wind_Direction
326 324 323 323 324 324 322 320 319 317 314 312 312 313 314 309 295 281 272 266 259 251 244 241 240 240 237 232 228 223 218 217 215 209 207 206 212 215 208 211 216 217 213 209 207 202 200 197 195 193 182 181 188 177 158 150 139 123 110 102 94 86 79 72 69 66 68 72 68 85 150 158 154 145 147 151 154 158 175 189 177 172 177 170 170 180 174 165
324 322 320 319 320 320 320 318 315 311 307 305 306 310 314 316 309 292 277 269 262 255 248 243 241 241 239 233 228 222 218 216 214 210 206 204 208 210 206 210 214 217 214 211 210 204 202 199 195 193 188 185 189 183 162 153 144 128 115 105 99 92 82 74 72 68 70 82 77 56 110 157 161 149 142 146 145 144 158 164 162 165 172 170 170 177 174 166
323 320 317 316 317 317 318 316 313 307 299 293 295 301 307 313 315 306 286 273 266 258 250 244 241 241 240 236 229 222 217 213 212 210 205 203 204 206 207 207 206 205 203 201 203 202 199 196 193 194 195 191 190 187 168 160 153 136 122 111 104 95 84 80 81 74 69 71 70 52 83 153 165 154 143 142 134 130 143 151 158 167 171 169 168 174 174 167
323 321 318 316 315 316 316 315 312 306 296 285 281 286 294 302 308 309 298 281 269 259 252 246 240 240 240 237 232 224 217 213 211 207 204 202 200 201 205 206 202 198 197 195 195 199 197 192 190 192 197 196 192 187 175 171 163 145 132 121 111 99 87 83 82 76 68 59 53 53 59 132 161 158 152 144 117 120 141 145 157 171 175 170 165 173 175 166
322 321 319 318 316 316 315 314 312 307 298 287 278 275 280 287 295 299 299 290 273 257 251 247 242 241 239 235 233 225 217 216 213 205 202 201 198 200 203 203 201 198 200 200 200 201 199 193 191 191 194 197 194 187 184 184 174 155 142 128 119 108 97 90 86 78 70 59 51 59 67 106 141 146 148 141 107 121 145 143 155 163 169 170 167 174 176 166
322 321 320 319 318 317 315 314 311 307 300 291 281 274 273 276 282 285 289 288 277 257 245 244 242 242 240 234 230 223 215 215 211 201 199 198 196 199 202 201 201 203 203 205 207 206 204 199 196 195 193 196 194 189 191 193 184 166 150 139 136 135 126 112 103 87 72 65 65 81 96 102 108 115 134 140 134 139 143 138 149 155 158 168 174 178 178 165
323 321 321 320 318 317 315 314 311 307 301 294 287 277 272 272 274 276 276 276 273 255 241 241 240 240 240 235 228 221 214 211 206 197 194 195 195 198 201 201 201 205 205 207 210 209 208 205 203 200 195 197 194 189 196 198 189 171 158 163 170 161 148 126 104 83 65 67 85 100 106 106 108 117 133 145 153 151 146 145 153 159 160 166 177 184 182 170
324 322 321 320 318 316 314 313 310 306 301 296 291 284 276 270 270 272 269 267 264 252 239 236 237 238 238 237 229 219 215 212 205 195 191 191 194 197 199 201 201 204 204 206 207 205 208 207 206 203 199 200 194 190 198 198 193 179 173 186 182 171 157 141 112 77 71 85 99 109 120 132 136 138 144 156 166 162 158 158 162 166 166 167 175 185 187 176
325 324 322 320 318 315 313 312 309 305 300 296 292 289 284 275 268 268 267 263 259 250 240 234 232 235 234 235 229 219 215 213 206 195 190 190 192 196 197 199 201 203 202 203 201 197 201 204 206 203 202 201 193 195 199 199 200 189 187 196 187 176 166 167 161 106 109 132 118 123 136 147 153 151 154 166 171 166 168 169 168 169 169 171 175 182 187 181
327 325 324 322 319 315 313 312 309 305 299 295 291 288 286 280 271 267 266 263 260 251 241 233 229 229 229 229 228 220 214 212 207 195 190 191 191 195 196 196 199 203 202 201 199 192 191 198 205 202 200 199 193 197 200 199 201 194 194 199 192 185 176 179 181 148 144 152 141 138 142 153 163 163 163 168 167 164 173 176 169 169 171 175 178 177 183 185
326 326 325 323 320 316 313 312 310 306 300 296 292 288 283 279 273 267 264 261 260 254 244 235 228 224 224 224 225 221 215 213 209 197 191 192 193 194 196 196 197 201 201 197 194 188 184 192 199 195 195 197 195 199 203 202 200 196 199 202 200 193 178 179 172 157 164 167 163 144 150 170 153 154 169 171 167 164 171 174 170 170 169 175 181 176 177 184
324 324 323 321 319 316 313 312 310 306 302 298 295 290 284 277 272 266 262 259 257 255 248 238 230 224 219 218 220 217 214 213 209 203 195 192 193 194 194 196 197 199 199 193 187 185 186 192 195 191 193 197 196 199 205 206 202 199 204 208 208 195 177 183 170 159 187 186 190 170 153 139 119 140 169 163 166 174 175 171 170 172 170 174 181 178 176 182
323 322 321 320 318 315 312 310 308 305 302 301 299 294 288 280 272 266 261 257 253 252 249 241 233 225 215 215 216 206 204 207 209 210 204 195 194 195 194 197 199 198 195 189 183 184 188 193 193 191 194 197 194 195 204 209 205 202 209 215 212 198 192 200 181 168 199 198 204 202 180 84 96 156 179 154 161 179 185 177 173 176 175 176 181 181 177 180
323 322 321 319 316 314 311 309 307 303 301 301 301 297 291 284 275 267 262 256 251 249 246 242 235 225 215 212 209 198 197 202 205 208 208 201 197 199 198 197 201 200 196 190 184 182 187 192 192 190 193 194 193 194 200 208 208 205 211 219 216 206 207 205 191 195 213 205 204 208 216 191 99 184 195 157 158 170 183 184 180 181 179 179 183 183 180 179
326 324 321 319 317 314 312 310 307 303 301 302 301 298 293 287 278 270 263 256 251 245 242 240 233 224 214 206 201 197 198 201 202 201 201 199 197 201 203 200 200 199 197 194 189 185 185 188 190 188 188 190 191 195 196 202 210 207 207 224 225 214 211 204 198 217 220 205 204 209 218 226 221 234 266 266 185 162 173 186 190 190 186 185 186 187 183 180
330 326 324 324 323 320 317 316 312 306 303 302 301 297 292 287 279 272 264 256 249 243 240 236 231 219 207 202 199 195 194 196 198 196 196 196 193 196 202 202 199 196 197 196 192 190 187 186 186 185 187 190 192 196 197 196 208 208 205 217 221 213 213 207 207 217 206 198 208 212 210 204 204 222 256 277 279 228 175 180 194 198 194 189 190 191 188 184
330 328 328 330 330 326 322 322 318 312 307 306 304 297 292 287 279 271 265 258 247 239 235 232 225 210 202 203 195 189 191 192 190 188 190 195 193 192 197 199 199 197 197 196 193 193 191 186 183 185 191 193 195 196 197 199 196 202 206 206 205 202 201 204 213 216 204 196 206 219 226 228 231 227 257 294 294 276 236 179 193 204 204 193 191 194 193 190
328 327 329 331 331 327 326 327 321 314 311 313 310 300 294 287 278 272 266 257 246 236 231 228 216 199 196 196 187 187 191 186 183 182 185 191 192 190 190 194 198 197 196 196 194 194 193 189 184 189 194 195 198 197 198 204 195 190 198 202 204 197 188 190 204 215 214 209 211 224 231 232 249 261 268 283 286 275 267 250 220 215 217 206 193 195 197 196
325 325 326 328 327 325 328 329 321 314 314 317 314 304 295 286 279 273 265 255 244 233 225 223 209 196 194 189 183 187 188 180 177 178 181 187 192 192 190 192 196 196 196 195 194 194 194 191 190 194 200 198 198 199 199 200 197 195 196 199 203 199 188 180 177 194 209 217 223 230 236 237 253 263 264 273 279 279 268 251 243 242 238 228 206 196 198 200
326 324 325 325 322 322 326 327 322 316 316 318 314 306 297 288 281 268 259 249 239 228 218 216 207 198 193 186 183 184 181 174 171 172 177 185 191 194 192 193 196 194 195 197 195 196 196 196 197 199 202 199 197 200 201 198 191 193 197 199 204 204 196 182 170 184 211 224 232 236 247 246 240 254 260 266 271 271 264 252 243 245 268 252 225 201 198 199
330 328 327 324 320 320 320 321 319 318 319 317 310 307 298 291 285 267 259 248 238 227 216 213 204 196 192 186 184 182 176 172 173 174 177 183 189 195 195 195 196 194 192 194 195 196 199 202 204 204 200 196 197 201 202 203 198 192 194 199 206 208 203 191 185 205 232 241 247 245 249 239 221 248 255 254 260 265 264 257 250 246 288 328 256 214 200 197
332 331 329 325 323 323 319 315 312 314 318 314 308 304 291 288 287 272 262 250 239 224 213 209 198 191 191 188 186 182 176 177 182 181 179 183 189 193 197 197 195 195 190 188 193 196 199 205 207 205 197 191 197 201 203 208 208 206 203 204 211 213 208 204 211 225 238 243 244 250 254 248 241 254 258 259 268 280 278 261 251 251 258 287 303 230 205 198
330 330 329 326 325 325 322 316 309 307 310 311 305 293 283 284 282 272 259 240 235 220 205 199 189 186 187 187 186 183 180 184 190 187 183 186 192 191 197 198 193 195 193 189 193 194 197 205 206 201 197 196 196 197 203 212 216 219 217 216 220 216 210 209 221 228 233 252 253 256 265 264 257 259 271 284 291 291 284 261 239 238 244 253 261 239 206 200
327 327 326 324 323 323 321 317 310 304 304 308 301 283 278 278 277 276 240 214 219 208 193 189 182 180 183 184 184 182 183 187 188 188 183 181 192 190 190 196 194 194 196 194 196 197 201 207 204 201 201 202 202 202 204 210 221 227 227 226 224 220 220 217 215 224 235 265 265 264 274 273 266 265 271 284 291 288 279 266 247 226 216 230 237 233 214 200
328 328 326 323 319 317 317 316 311 305 302 305 296 276 266 267 271 257 185 168 146 154 170 177 175 176 182 181 178 180 182 182 181 180 173 167 185 189 187 193 196 197 199 196 195 199 205 207 205 206 207 207 209 212 212 214 222 233 236 232 228 227 230 229 227 235 246 251 240 256 278 266 254 256 262 275 288 293 284 274 264 236 210 217 226 229 226 207
337 336 334 329 322 318 316 315 312 306 302 298 280 255 240 243 233 178 137 117 116 125 150 165 170 176 181 178 174 178 179 178 178 175 170 170 180 188 189 192 194 196 200 197 195 200 204 205 203 206 213 216 217 217 218 219 223 234 236 234 233 231 232 235 236 241 246 231 206 180 258 254 258 267 269 278 285 293 291 283 274 246 220 217 222 226 227 219
343 344 341 336 332 328 324 318 311 305 301 288 254 230 222 213 182 158 136 113 103 106 144 155 166 176 180 179 180 181 177 176 178 178 177 174 172 183 191 195 194 192 197 197 195 201 203 204 202 198 208 219 222 222 221 219 223 232 232 230 235 229 228 232 229 228 237 242 233 208 230 254 306 325 292 293 301 304 308 305 294 268 234 219 221 229 229 224
346 347 345 341 341 340 336 326 316 311 301 273 231 204 199 187 161 153 147 115 95 114 140 146 159 171 174 177 179 177 174 174 176 178 175 169 166 172 182 190 189 185 195 195 194 205 205 207 212 208 211 223 226 227 225 224 227 233 233 227 213 202 206 209 211 220 235 254 242 208 190 209 14 346 289 265 315 308 304 305 300 287 262 233 220 225 231 231
347 347 345 345 345 345 346 340 329 327 312 231 186 171 171 163 151 147 138 95 105 125 141 139 146 158 163 166 166 165 169 170 170 169 167 170 173 171 171 172 168 166 175 179 183 198 197 202 214 214 219 227 224 223 222 222 226 230 231 220 207 201 195 193 201 213 213 229 220 195 185 193 58 12 339 282 310 298 287 290 295 289 267 249 239 233 236 238
346 345 345 346 347 348 353 355 353 349 47 142 149 150 151 151 148 148 121 105 109 128 137 136 143 151 155 157 155 157 166 168 168 166 164 168 169 170 174 170 160 154 155 159 159 164 171 177 190 195 206 211 205 207 210 210 213 215 210 198 197 197 192 192 199 201 189 221 220 203 197 204 135 27 19 12 337 310 296 288 291 285 258 253 247 231 227 226
345 346 348 348 351 357 3 12 29 68 129 133 137 140 138 140 138 99 108 112 107 123 134 139 147 150 155 157 152 151 161 167 169 169 170 170 169 170 171 169 165 162 165 167 161 159 166 167 170 176 183 190 193 196 196 200 202 198 192 190 187 173 169 172 182 192 194 215 214 203 194 178 122 36 23 11 336 309 298 289 282 271 254 245 219 210 223 222
350 353 356 355 356 8 22 27 50 105 136 137 135 135 131 126 90 53 94 115 107 121 134 143 147 148 156 158 149 148 157 158 162 173 178 174 176 170 163 167 171 171 173 176 172 166 165 162 163 171 175 179 186 187 185 193 197 194 193 191 184 165 163 166 162 183 204 210 196 190 182 131 90 52 31 11 337 312 302 294 276 264 256 238 210 212 228 224
359 4 7 5 3 21 34 33 76 115 136 136 131 130 123 112 69 49 74 100 105 127 135 144 150 150 156 155 146 149 157 150 154 171 173 167 175 171 164 170 175 178 179 175 170 159 155 157 159 164 174 184 192 187 181 187 194 196 195 193 189 172 173 181 163 153 202 208 193 183 176 140 111 55 31 23 357 331 311 299 281 272 264 250 238 231 233 230
10 14 14 12 15 29 30 38 88 117 131 123 120 126 107 90 69 61 74 89 106 126 135 144 153 153 156 154 148 152 152 140 143 153 152 154 158 154 150 163 176 185 180 167 164 163 158 154 158 162 164 179 198 197 187 188 197 202 202 204 205 199 194 189 176 171 174 179 181 179 171 152 139 73 34 30 13 349 320 306 289 281 276 261 255 248 238 239
18 18 19 17 19 28 30 50 80 104 108 106 122 121 97 74 62 65 73 91 108 122 128 140 154 155 152 148 149 158 155 139 139 144 145 144 135 125 124 136 156 175 176 167 158 157 151 133 133 148 149 147 173 193 194 192 197 205 208 209 211 209 205 173 175 180 165 153 163 165 140 147 154 117 42 31 20 351 298 301 290 283 284 267 251 248 239 233
22 25 25 18 16 26 42 61 81 94 91 105 128 103 82 69 69 66 68 87 111 125 129 136 147 146 140 140 146 157 157 147 145 142 135 126 113 108 110 112 126 149 162 160 150 145 141 131 127 132 138 136 139 168 190 193 193 197 199 203 211 208 197 167 163 171 171 168 158 138 106 135 168 170 11 10 350 281 244 282 291 284 285 272 251 241 235 232
25 32 28 21 26 37 52 58 64 73 58 42 113 89 76 73 71 64 63 69 100 132 139 137 135 134 133 135 141 149 152 151 151 141 127 115 101 96 101 104 109 121 134 140 141 145 143 135 131 126 129 149 144 136 166 187 195 196 195 200 207 204 202 198 167 158 180 182 117 98 84 82 142 210 338 351 308 288 270 302 312 293 287 276 255 236 229 231
23 34 23 21 38 46 55 51 42 38 9 31 95 86 73 71 66 59 60 57 72 119 153 149 132 134 140 139 141 149 156 155 156 150 132 118 102 91 95 101 101 105 117 119 120 137 142 133 131 120 104 133 160 149 134 159 185 195 201 201 193 184 195 199 184 171 189 177 110 98 85 62 51 12 1 9 3 346 339 340 328 281 283 276 257 237 229 227
15 26 17 30 47 44 47 47 35 22 4 80 94 84 72 71 64 59 65 62 61 74 168 165 145 144 149 149 149 154 161 163 162 156 140 124 116 107 99 98 98 102 110 108 105 123 136 132 137 126 98 123 157 166 146 119 156 180 195 194 189 187 190 190 195 213 205 166 136 134 113 56 41 22 11 18 20 13 1 354 349 324 306 286 262 242 232 229
357 5 7 45 50 40 40 37 19 8 27 97 95 86 80 72 59 55 63 63 63 78 133 153 156 156 153 156 159 158 158 159 162 160 149 139 134 126 119 112 106 107 112 110 104 113 123 117 119 119 122 145 138 129 128 109 133 168 178 181 186 190 182 183 195 213 212 161 151 149 126 67 48 37 23 28 30 24 16 9 4 355 342 318 290 262 244 235
330 345 342 46 53 42 31 17 1 14 76 97 90 85 82 71 58 53 57 60 68 95 108 120 148 154 151 153 159 164 158 153 161 162 147 143 140 134 135 134 126 117 110 111 111 115 112 103 109 110 116 134 129 116 115 109 120 157 169 175 182 179 173 177 193 201 188 152 154 147 122 92 68 49 37 41 41 33 27 20 11 3 353 342 324 293 268 251
334 349 338 329 51 39 22 39 57 76 103 104 93 83 75 67 59 49 51 60 74 101 108 111 125 133 139 143 152 164 158 150 155 154 145 148 152 149 148 148 146 134 113 106 104 101 101 102 112 117 119 127 129 124 121 113 113 131 152 170 176 175 178 186 190 177 158 126 134 128 113 103 80 58 49 52 52 41 32 25 14 6 358 352 342 321 293 272
18 20 346 326 6 45 57 85 91 90 105 103 90 77 63 48 46 44 51 66 83 106 118 118 117 122 130 134 143 159 153 142 146 150 151 156 157 152 151 148 144 141 132 118 100 94 101 108 115 118 123 129 133 141 140 127 120 119 135 158 164 168 178 188 180 165 141 118 137 131 117 118 85 70 74 72 67 53 36 23 12 6 359 350 340 330 310 284
25 32 3 282 256 77 77 99 96 86 95 94 74 54 30 5 11 26 38 66 91 115 137 127 116 121 130 127 133 155 152 138 142 150 153 158 159 154 153 152 143 141 145 129 101 96 109 129 130 127 129 139 151 177 173 153 145 144 141 142 147 154 158 160 164 159 132 117 145 132 119 134 116 92 92 84 78 66 42 19 3 358 353 348 340 331 321 297
19 19 8 308 263 117 110 110 96 87 98 96 50 21 12 352 348 50 54 76 108 119 136 138 124 119 130 130 127 148 154 143 150 157 159 164 168 162 161 166 156 153 163 152 106 82 109 141 149 155 177 190 187 196 193 185 173 160 143 133 142 154 153 150 154 151 123 119 124 107 120 136 129 105 99 91 86 73 53 33 7 350 347 349 347 338 330 313
25 21 16 15 40 80 120 118 109 106 113 89 28 27 37 44 66 80 75 90 120 121 134 152 144 129 131 131 113 117 129 137 152 166 172 178 185 182 187 196 185 185 198 194 268 31 119 156 178 202 221 225 216 201 195 193 182 161 147 144 152 159 159 158 149 131 125 124 111 109 135 142 136 124 114 97 90 79 64 53 18 340 343 349 351 351 343 331
40 43 43 48 68 92 125 135 140 160 199 320 6 45 64 70 69 62 58 65 101 123 144 157 158 153 138 122 112 120 131 139 151 168 178 187 199 206 219 230 227 235 243 248 275 294 186 205 212 206 211 216 208 200 196 194 191 189 182 167 169 166 160 157 143 130 136 134 117 125 145 154 164 160 139 95 84 79 72 75 63 345 351 353 354 356 349 340
49 54 58 63 73 87 130 170 181 192 234 275 326 102 112 102 81 50 34 32 109 144 158 163 169 177 162 153 157 150 144 146 158 173 183 194 210 223 234 242 255 264 260 263 275 274 242 225 209 198 197 191 188 193 196 200 206 210 207 190 183 179 165 153 143 137 143 149 143 142 150 176 190 185 174 147 85 24 23 52 58 12 355 354 353 349 344 344
62 61 63 67 68 76 96 119 127 131 175 202 161 172 175 154 142 355 354 313 230 203 185 180 187 196 195 194 196 181 165 162 173 187 197 207 220 232 239 243 255 262 257 262 268 252 221 208 200 194 190 184 183 190 197 205 217 219 211 193 186 187 179 164 151 144 144 143 137 135 138 179 206 207 200 195 244 296 322 354 19 4 349 348 345 341 340 343
66 66 64 65 66 63 65 65 59 60 82 107 156 195 217 239 258 276 288 267 234 222 213 210 214 214 214 214 209 200 195 192 195 202 209 215 220 226 235 240 246 248 247 249 243 224 213 211 203 191 180 178 184 189 194 203 212 217 214 199 187 192 189 175 166 161 154 148 144 140 135 158 207 227 221 218 252 280 304 321 330 332 333 338 339 337 335 333
55 64 61 60 61 60 59 58 51 49 61 90 176 221 257 276 294 307 302 246 210 206 202 217 238 238 234 228 217 211 211 212 207 205 207 213 216 220 226 231 233 233 231 226 220 218 223 220 207 191 169 164 176 184 189 196 203 210 214 204 193 195 194 182 176 175 172 170 173 176 176 186 213 242 250 251 261 273 286 294 300 307 310 314 320 325 325 324
39 52 62 68 72 71 69 66 58 48 47 49 52 286 294 323 8 24 34 99 157 162 166 208 241 236 230 221 213 213 216 217 215 213 216 218 219 220 220 222 225 224 219 215 212 215 221 214 202 190 165 159 171 175 172 178 189 204 205 202 195 196 197 185 174 177 180 181 184 194 214 230 243 259 268 264 262 262 267 277 287 296 300 302 303 305 309 316
Height
3142 3141 3140 3140 3139 3139 3138 3138 3137 3137 3137 3136 3136 3136 3136 3136 3136 3135 3135 3135 3136 3136 3136 3136 3137 3137 3137 3138 3139 3140 3141 3141 3142 3143 3144 3145 3146 3147 3148 3148 3149 3150 3152 3153 3154 3156 3158 3159 3161 3162 3163 3164 3165 3166 3166 3166 3166 3166 3166 3166 3167 3167 3167 3168 3169 3169 3169 3170 3170 3170 3171 3172 3172 3173 3174 3174 3174 3175 3175 3176 3177 3178 3179 3180 3182 3184 3185 3186
3141 3140 3139 3138 3138 3137 3137 3136 3136 3136 3135 3135 3135 3135 3135 3134 3134 3134 3134 3134 3134 3135 3135 3135 3135 3135 3136 3137 3137 3138 3139 3140 3141 3142 3143 3144 3145 3146 3147 3147 3148 3149 3151 3153 3154 3156 3158 3159 3161 3162 3163 3164 3165 3166 3166 3167 3167 3166 3166 3167 3167 3168 3168 3168 3169 3169 3169 3170 3170 3171 3171 3172 3172 3173 3174 3175 3175 3175 3176 3177 3178 3178 3179 3180 3182 3184 3185 3187
3139 3139 3138 3137 3137 3136 3136 3135 3135 3134 3134 3134 3134 3134 3134 3133 3133 3133 3133 3133 3133 3133 3134 3134 3134 3134 3134 3135 3136 3137 3138 3138 3139 3140 3142 3143 3144 3145 3146 3147 3147 3149 3150 3152 3153 3155 3157 3158 3160 3161 3163 3164 3165 3166 3167 3167 3167 3167 3167 3167 3168 3168 3168 3169 3169 3169 3170 3170 3170 3171 3171 3172 3173 3174 3174 3175 3176 3177 3177 3178 3179 3179 3180 3181 3182 3184 3186 3187
3138 3137 3137 3136 3135 3135 3134 3134 3133 3133 3132 3132 3132 3132 3132 3132 3132 3132 3132 3132 3132 3132 3132 3133 3133 3133 3133 3134 3135 3135 3136 3137 3138 3139 3140 3141 3143 3144 3145 3146 3147 3148 3149 3150 3151 3153 3154 3156 3158 3160 3162 3163 3164 3166 3167 3167 3167 3167 3167 3168 3168 3169 3169 3170 3170 3170 3170 3170 3171 3171 3172 3172 3173 3174 3175 3175 3177 3178 3178 3179 3180 3181 3182 3182 3183 3185 3186 3188
3137 3136 3135 3135 3134 3134 3133 3133 3132 3131 3131 3131 3131 3131 3131 3131 3131 3131 3131 3131 3131 3131 3131 3131 3131 3131 3132 3133 3133 3134 3135 3136 3137 3138 3139 3140 3141 3143 3144 3145 3146 3147 3148 3149 3150 3151 3152 3155 3156 3158 3160 3162 3163 3165 3166 3167 3167 3168 3168 3168 3168 3169 3169 3170 3170 3170 3170 3170 3171 3171 3172 3173 3173 3174 3175 3176 3177 3178 3179 3180 3181 3182 3183 3184 3185 3185 3187 3189
3136 3135 3134 3133 3133 3132 3132 3131 3131 3130 3129 3129 3130 3130 3130 3130 3130 3129 3129 3129 3130 3130 3130 3130 3130 3130 3131 3131 3132 3133 3134 3135 3135 3136 3137 3139 3140 3141 3142 3144 3145 3146 3147 3148 3149 3150 3152 3154 3156 3157 3159 3161 3163 3165 3166 3166 3167 3168 3168 3168 3168 3168 3169 3169 3169 3169 3170 3170 3171 3171 3172 3173 3174 3174 3175 3176 3177 3178 3179 3180 3181 3181 3183 3185 3186 3187 3188 3190
3134 3134 3133 3132 3131 3131 3130 3130 3129 3128 3128 3128 3128 3128 3129 3129 3129 3128 3128 3128 3129 3129 3129 3129 3129 3129 3130 3130 3131 3131 3132 3133 3133 3135 3136 3137 3139 3140 3141 3143 3144 3145 3147 3148 3149 3150 3152 3154 3156 3157 3159 3161 3162 3164 3165 3166 3166 3167 3168 3168 3168 3168 3168 3169 3169 3169 3170 3170 3170 3171 3172 3173 3174 3175 3175 3176 3177 3178 3179 3180 3180 3181 3182 3184 3186 3188 3189 3191
3133 3132 3132 3131 3130 3129 3129 3128 3128 3127 3126 3126 3126 3126 3127 3127 3127 3127 3126 3127 3127 3128 3128 3128 3128 3128 3129 3129 3130 3130 3131 3131 3132 3133 3134 3136 3137 3138 3140 3142 3143 3144 3146 3147 3148 3150 3152 3154 3156 3158 3159 3160 3162 3164 3164 3165 3166 3167 3167 3167 3167 3167 3168 3168 3169 3169 3170 3170 3170 3171 3172 3173 3173 3174 3175 3176 3177 3178 3178 3179 3180 3181 3182 3184 3186 3188 3190 3192
3131 3131 3130 3129 3128 3128 3127 3127 3126 3125 3125 3125 3125 3125 3125 3125 3125 3125 3125 3125 3126 3126 3127 3127 3127 3127 3128 3128 3129 3129 3129 3130 3131 3132 3133 3134 3136 3137 3139 3141 3142 3144 3145 3146 3148 3149 3151 3153 3155 3157 3158 3160 3162 3163 3163 3164 3165 3166 3167 3167 3167 3168 3168 3168 3169 3169 3170 3170 3171 3171 3172 3173 3173 3174 3175 3176 3177 3178 3178 3179 3180 3181 3183 3184 3186 3187 3190 3192
3130 3129 3129 3128 3127 3126 3125 3125 3124 3124 3123 3123 3123 3123 3123 3123 3123 3123 3123 3123 3124 3125 3125 3126 3126 3126 3127 3127 3127 3128 3128 3128 3129 3131 3132 3133 3134 3136 3137 3139 3141 3143 3144 3146 3147 3149 3150 3152 3154 3156 3158 3159 3161 3162 3162 3163 3164 3165 3166 3167 3167 3168 3168 3169 3169 3170 3170 3171 3171 3171 3172 3173 3173 3174 3175 3176 3176 3177 3178 3179 3180 3181 3183 3185 3186 3187 3190 3192
3129 3128 3127 3126 3126 3125 3124 3123 3123 3122 3122 3122 3122 3122 3121 3121 3121 3121 3121 3122 3122 3123 3124 3124 3125 3125 3126 3126 3126 3127 3127 3128 3129 3130 3131 3132 3133 3135 3136 3138 3140 3141 3143 3145 3147 3148 3150 3151 3153 3155 3156 3158 3159 3160 3161 3162 3163 3165 3166 3166 3167 3168 3169 3169 3170 3170 3170 3171 3171 3172 3172 3172 3173 3174 3175 3176 3177 3177 3178 3179 3181 3182 3183 3184 3186 3187 3189 3191
3127 3126 3126 3125 3124 3123 3122 3122 3121 3120 3120 3120 3120 3120 3119 3119 3119 3119 3119 3120 3121 3121 3122 3123 3123 3124 3125 3125 3125 3126 3127 3127 3128 3129 3130 3131 3132 3134 3135 3137 3138 3140 3142 3145 3147 3148 3149 3150 3151 3153 3155 3156 3158 3160 3161 3162 3163 3164 3165 3166 3167 3168 3169 3170 3170 3170 3170 3171 3171 3172 3172 3172 3173 3174 3175 3176 3177 3178 3179 3180 3181 3182 3183 3184 3186 3187 3188 3191
3126 3125 3124 3123 3122 3121 3120 3120 3119 3118 3117 3117 3118 3118 3117 3117 3117 3117 3118 3118 3119 3119 3120 3121 3122 3122 3123 3124 3124 3125 3125 3126 3127 3128 3129 3131 3132 3133 3134 3136 3137 3138 3140 3143 3144 3146 3147 3149 3151 3153 3154 3156 3158 3159 3160 3161 3162 3164 3165 3166 3167 3169 3170 3170 3170 3170 3171 3171 3171 3172 3173 3173 3174 3174 3175 3176 3177 3178 3179 3180 3181 3182 3183 3184 3185 3187 3188 3190
3124 3123 3122 3121 3120 3119 3118 3118 3117 3116 3115 3115 3116 3115 3115 3115 3115 3115 3116 3116 3117 3118 3118 3119 3120 3121 3122 3123 3123 3124 3124 3125 3126 3127 3128 3130 3131 3132 3134 3135 3136 3138 3139 3141 3142 3144 3146 3148 3150 3152 3153 3155 3157 3158 3159 3160 3162 3163 3165 3166 3167 3168 3169 3169 3170 3170 3170 3171 3171 3172 3173 3174 3174 3174 3175 3176 3177 3178 3179 3180 3181 3182 3183 3184 3185 3187 3188 3190
3123 3122 3120 3119 3118 3117 3116 3116 3115 3114 3113 3113 3113 3113 3113 3113 3113 3113 3114 3114 3115 3116 3117 3117 3118 3119 3121 3122 3122 3123 3123 3123 3125 3126 3127 3128 3130 3131 3133 3134 3135 3137 3139 3140 3141 3142 3144 3146 3148 3151 3153 3154 3156 3157 3159 3160 3161 3163 3165 3166 3166 3167 3168 3169 3169 3169 3170 3170 3171 3172 3173 3174 3174 3175 3175 3176 3177 3178 3179 3180 3181 3182 3183 3185 3185 3186 3188 3190
3121 3120 3119 3118 3117 3116 3115 3114 3113 3112 3111 3111 3111 3111 3111 3111 3111 3111 3112 3112 3113 3114 3115 3116 3117 3118 3120 3121 3121 3122 3122 3122 3123 3125 3126 3127 3128 3129 3131 3132 3134 3136 3137 3139 3140 3142 3143 3144 3147 3150 3152 3153 3155 3156 3159 3161 3162 3163 3164 3165 3166 3167 3168 3168 3169 3169 3169 3170 3170 3172 3173 3174 3174 3175 3176 3176 3177 3179 3179 3180 3181 3182 3184 3185 3186 3186 3188 3190
3120 3119 3118 3117 3116 3114 3113 3112 3111 3110 3110 3110 3109 3109 3109 3109 3109 3109 3110 3110 3111 3112 3113 3114 3115 3117 3118 3119 3120 3121 3121 3122 3122 3124 3125 3126 3127 3128 3130 3132 3133 3134 3136 3138 3140 3141 3142 3144 3146 3149 3150 3152 3153 3155 3158 3160 3161 3162 3163 3164 3165 3166 3167 3168 3168 3168 3169 3169 3170 3171 3172 3173 3174 3175 3176 3176 3177 3179 3180 3181 3181 3182 3183 3184 3186 3186 3188 3189
3119 3118 3117 3116 3114 3113 3112 3111 3110 3108 3108 3108 3108 3107 3107 3107 3107 3107 3107 3108 3109 3110 3111 3112 3114 3116 3117 3117 3119 3120 3120 3121 3122 3123 3124 3125 3126 3127 3128 3130 3131 3133 3135 3137 3139 3140 3142 3144 3146 3147 3149 3150 3152 3154 3156 3158 3159 3161 3162 3164 3164 3165 3167 3167 3167 3168 3168 3169 3169 3170 3171 3172 3174 3174 3175 3176 3177 3178 3179 3181 3181 3182 3183 3184 3185 3186 3187 3189
3118 3117 3116 3115 3113 3112 3111 3110 3108 3107 3107 3107 3106 3106 3105 3105 3105 3105 3106 3106 3107 3108 3109 3110 3112 3114 3115 3116 3117 3118 3120 3121 3122 3123 3123 3124 3125 3126 3127 3128 3130 3132 3134 3136 3137 3139 3141 3143 3144 3145 3146 3148 3150 3152 3155 3156 3158 3160 3161 3163 3164 3165 3166 3166 3167 3167 3167 3168 3169 3169 3170 3172 3173 3173 3174 3176 3177 3178 3179 3180 3181 3181 3182 3183 3184 3186 3187 3188
3117 3116 3115 3113 3112 3111 3110 3109 3107 3106 3105 3105 3105 3104 3104 3103 3103 3103 3104 3104 3105 3106 3107 3108 3110 3112 3113 3115 3116 3118 3119 3121 3122 3122 3123 3124 3125 3126 3127 3128 3129 3131 3133 3135 3136 3138 3140 3141 3142 3142 3144 3147 3150 3152 3154 3156 3157 3159 3160 3162 3163 3164 3165 3166 3167 3167 3167 3168 3168 3169 3170 3171 3172 3173 3173 3174 3175 3176 3178 3179 3180 3181 3182 3183 3184 3185 3186 3188
3116 3115 3113 3112 3111 3110 3109 3107 3106 3105 3104 3104 3103 3103 3102 3102 3102 3102 3102 3102 3103 3104 3105 3107 3108 3111 3112 3114 3115 3117 3119 3120 3121 3122 3123 3124 3124 3125 3126 3127 3128 3130 3132 3134 3136 3138 3139 3140 3141 3142 3144 3148 3150 3152 3153 3155 3157 3158 3159 3161 3162 3163 3164 3166 3166 3166 3166 3167 3168 3168 3169 3170 3171 3172 3172 3173 3174 3175 3177 3178 3180 3181 3182 3183 3184 3185 3186 3187
3115 3114 3112 3110 3109 3108 3107 3105 3104 3103 3103 3103 3102 3101 3101 3101 3101 3100 3100 3100 3101 3102 3103 3105 3107 3109 3111 3113 3115 3117 3118 3119 3120 3121 3122 3123 3124 3125 3126 3127 3128 3129 3131 3133 3135 3136 3138 3139 3140 3143 3146 3148 3149 3151 3153 3154 3156 3157 3159 3160 3162 3163 3164 3165 3166 3166 3166 3167 3168 3168 3168 3169 3170 3171 3171 3172 3173 3174 3175 3177 3178 3180 3181 3182 3183 3184 3185 3186
3114 3112 3111 3109 3108 3106 3105 3103 3102 3102 3102 3101 3101 3100 3100 3100 3099 3099 3099 3099 3099 3100 3102 3103 3106 3108 3110 3112 3114 3116 3118 3119 3120 3121 3122 3123 3123 3124 3125 3127 3128 3129 3130 3131 3133 3135 3136 3138 3140 3143 3146 3147 3149 3150 3152 3153 3155 3156 3158 3159 3161 3162 3163 3165 3165 3165 3166 3167 3167 3167 3167 3168 3169 3170 3171 3171 3172 3173 3174 3175 3177 3178 3179 3181 3182 3183 3184 3186
3112 3110 3109 3107 3106 3104 3103 3102 3101 3100 3100 3100 3099 3099 3098 3098 3098 3098 3098 3098 3099 3099 3100 3102 3104 3107 3109 3111 3114 3116 3118 3119 3120 3121 3122 3122 3123 3124 3125 3126 3127 3129 3130 3131 3133 3135 3136 3138 3140 3143 3145 3147 3148 3150 3151 3153 3154 3155 3156 3158 3159 3160 3162 3164 3164 3165 3166 3167 3167 3167 3167 3167 3168 3170 3170 3171 3171 3172 3172 3173 3174 3176 3178 3179 3181 3181 3183 3184
3110 3108 3106 3105 3104 3102 3101 3100 3099 3098 3098 3098 3098 3098 3097 3097 3097 3098 3098 3098 3098 3099 3100 3101 3104 3106 3108 3111 3113 3115 3117 3119 3120 3121 3121 3122 3122 3123 3125 3126 3127 3128 3129 3131 3133 3135 3137 3138 3140 3142 3144 3146 3147 3149 3150 3152 3154 3154 3155 3156 3158 3159 3161 3162 3164 3165 3166 3166 3166 3166 3167 3166 3167 3169 3170 3170 3170 3170 3171 3172 3173 3174 3176 3177 3179 3180 3182 3183
3108 3106 3104 3102 3101 3100 3099 3098 3097 3096 3096 3096 3096 3096 3096 3096 3096 3097 3097 3098 3099 3099 3099 3101 3103 3105 3108 3111 3113 3115 3117 3118 3119 3120 3121 3121 3122 3123 3125 3125 3127 3128 3129 3131 3133 3134 3136 3138 3140 3141 3143 3145 3146 3148 3149 3150 3153 3153 3154 3155 3156 3158 3160 3161 3163 3164 3165 3165 3165 3165 3166 3166 3166 3168 3169 3169 3169 3169 3169 3170 3171 3173 3174 3176 3177 3179 3180 3182
3107 3105 3103 3101 3099 3098 3097 3096 3095 3095 3094 3094 3095 3095 3095 3096 3096 3097 3097 3098 3099 3100 3100 3101 3103 3105 3108 3110 3112 3114 3116 3117 3119 3120 3121 3121 3122 3123 3124 3125 3126 3127 3128 3130 3132 3133 3135 3137 3139 3141 3142 3144 3145 3146 3147 3149 3151 3152 3152 3154 3156 3157 3159 3160 3162 3164 3164 3164 3164 3164 3165 3166 3166 3167 3167 3167 3167 3167 3168 3168 3170 3171 3173 3174 3176 3178 3179 3181
3105 3103 3102 3100 3098 3097 3096 3095 3094 3093 3093 3093 3093 3094 3094 3095 3096 3096 3097 3098 3100 3100 3100 3102 3103 3105 3107 3110 3112 3114 3116 3117 3118 3119 3120 3121 3122 3123 3124 3125 3126 3127 3128 3130 3132 3133 3134 3137 3138 3140 3142 3142 3143 3145 3146 3148 3150 3150 3152 3154 3155 3156 3158 3159 3161 3162 3163 3164 3164 3164 3164 3164 3165 3165 3164 3164 3164 3165 3166 3166 3167 3169 3171 3173 3175 3177 3178 3180
3104 3103 3101 3099 3098 3096 3095 3094 3093 3092 3092 3092 3092 3093 3094 3094 3095 3096 3097 3099 3100 3100 3101 3102 3103 3105 3107 3109 3112 3114 3115 3116 3118 3119 3120 3121 3122 3122 3124 3125 3126 3127 3128 3130 3132 3133 3134 3136 3137 3139 3140 3141 3142 3144 3145 3147 3148 3149 3151 3153 3154 3155 3157 3158 3160 3161 3162 3163 3162 3162 3163 3163 3164 3164 3163 3162 3162 3163 3164 3164 3165 3166 3167 3170 3173 3175 3177 3179
3104 3102 3100 3099 3097 3096 3095 3094 3093 3092 3092 3092 3092 3093 3093 3094 3095 3096 3097 3099 3101 3101 3102 3102 3104 3106 3107 3109 3112 3113 3114 3116 3117 3119 3120 3121 3122 3123 3123 3125 3126 3128 3129 3130 3132 3132 3133 3135 3136 3138 3139 3140 3141 3142 3144 3145 3147 3148 3150 3152 3153 3154 3156 3157 3158 3160 3161 3161 3160 3161 3162 3161 3163 3164 3164 3163 3163 3162 3162 3163 3163 3164 3164 3167 3170 3173 3175 3177
3104 3102 3100 3098 3097 3096 3095 3094 3093 3092 3092 3092 3092 3093 3094 3095 3096 3096 3098 3100 3101 3102 3102 3103 3104 3106 3107 3109 3111 3112 3114 3116 3117 3119 3120 3121 3122 3122 3123 3124 3126 3128 3129 3130 3131 3132 3133 3134 3135 3136 3138 3139 3140 3141 3143 3144 3145 3147 3149 3150 3152 3154 3155 3156 3158 3159 3160 3159 3158 3160 3161 3161 3163 3166 3165 3164 3163 3162 3161 3161 3161 3162 3163 3165 3168 3172 3173 3176
3103 3101 3100 3099 3097 3096 3095 3094 3093 3092 3092 3092 3093 3093 3094 3095 3096 3097 3099 3100 3101 3102 3103 3103 3105 3106 3107 3109 3111 3113 3115 3116 3117 3119 3120 3120 3121 3122 3122 3123 3125 3126 3128 3130 3131 3132 3133 3134 3134 3135 3137 3138 3139 3140 3142 3143 3144 3146 3147 3149 3150 3152 3154 3156 3156 3157 3157 3156 3157 3159 3160 3161 3164 3166 3165 3164 3163 3162 3160 3160 3160 3160 3161 3163 3166 3169 3171 3173
3103 3101 3100 3099 3098 3097 3096 3095 3094 3093 3093 3093 3093 3094 3095 3095 3098 3099 3099 3100 3101 3102 3103 3104 3105 3106 3108 3109 3111 3113 3115 3116 3118 3119 3120 3120 3121 3122 3122 3123 3124 3125 3126 3128 3130 3131 3133 3133 3134 3135 3136 3136 3138 3139 3140 3141 3142 3144 3145 3147 3147 3148 3151 3153 3154 3155 3155 3155 3156 3158 3158 3161 3163 3165 3164 3163 3162 3161 3160 3159 3159 3159 3160 3162 3164 3166 3169 3170
3104 3102 3102 3101 3100 3098 3097 3096 3095 3094 3094 3095 3095 3095 3095 3097 3100 3101 3100 3100 3101 3102 3103 3104 3105 3106 3108 3110 3111 3113 3115 3117 3118 3119 3120 3120 3121 3122 3122 3123 3124 3125 3126 3127 3129 3130 3131 3133 3134 3134 3134 3135 3136 3137 3138 3139 3140 3142 3143 3145 3145 3145 3146 3148 3150 3151 3152 3152 3155 3157 3158 3159 3162 3164 3164 3163 3162 3161 3159 3159 3158 3158 3158 3160 3162 3163 3166 3168
3105 3104 3103 3102 3101 3100 3099 3098 3097 3096 3096 3096 3096 3096 3097 3099 3101 3101 3101 3102 3102 3103 3103 3104 3105 3107 3108 3110 3112 3113 3115 3116 3118 3119 3120 3120 3121 3122 3122 3123 3124 3125 3125 3127 3128 3130 3131 3132 3133 3133 3134 3134 3135 3136 3137 3138 3139 3140 3142 3143 3144 3144 3145 3145 3146 3148 3149 3150 3154 3156 3157 3158 3160 3161 3162 3162 3161 3161 3160 3159 3158 3157 3157 3158 3160 3161 3163 3165
3106 3105 3104 3103 3102 3102 3101 3100 3099 3099 3098 3098 3098 3098 3099 3101 3102 3102 3102 3103 3103 3103 3104 3105 3106 3107 3109 3111 3112 3114 3115 3116 3118 3119 3120 3121 3121 3122 3123 3123 3124 3125 3125 3126 3127 3129 3130 3132 3133 3133 3134 3134 3134 3135 3136 3137 3138 3139 3141 3141 3142 3143 3144 3145 3145 3147 3148 3148 3152 3155 3157 3158 3159 3159 3160 3160 3160 3159 3159 3158 3157 3156 3156 3157 3158 3160 3161 3163
3107 3106 3105 3105 3104 3103 3102 3102 3101 3101 3100 3100 3099 3100 3102 3103 3103 3103 3103 3103 3104 3104 3105 3106 3107 3108 3109 3111 3113 3114 3115 3117 3118 3119 3120 3121 3122 3123 3123 3124 3125 3125 3126 3126 3127 3128 3130 3132 3133 3133 3134 3134 3134 3134 3135 3136 3137 3138 3139 3139 3141 3142 3144 3144 3144 3146 3146 3146 3151 3155 3156 3157 3159 3159 3158 3157 3157 3157 3157 3157 3156 3156 3155 3156 3157 3158 3159 3161
3108 3107 3106 3106 3105 3104 3103 3103 3102 3102 3101 3101 3101 3102 3103 3104 3104 3104 3104 3104 3104 3105 3105 3106 3107 3108 3109 3111 3113 3114 3115 3117 3118 3119 3120 3122 3123 3125 3124 3125 3125 3126 3126 3127 3127 3128 3129 3131 3133 3133 3133 3134 3134 3134 3134 3135 3136 3137 3137 3138 3140 3141 3142 3142 3143 3143 3143 3144 3150 3155 3156 3157 3158 3158 3157 3156 3155 3155 3155 3155 3155 3155 3155 3155 3156 3157 3158 3159
3109 3108 3107 3107 3106 3105 3105 3104 3103 3103 3102 3102 3102 3103 3104 3105 3105 3105 3105 3105 3105 3105 3106 3106 3107 3109 3110 3111 3112 3114 3115 3117 3118 3119 3120 3122 3124 3125 3125 3125 3126 3127 3127 3127 3128 3129 3130 3131 3132 3133 3133 3133 3134 3134 3134 3135 3135 3136 3136 3137 3138 3139 3139 3140 3141 3140 3141 3143 3148 3153 3155 3157 3159 3159 3158 3157 3155 3154 3154 3154 3154 3154 3154 3154 3155 3156 3157 3158
3109 3108 3108 3107 3107 3106 3106 3105 3104 3104 3103 3103 3103 3104 3105 3105 3106 3106 3105 3105 3105 3106 3106 3107 3107 3109 3110 3111 3112 3114 3115 3117 3118 3119 3120 3122 3123 3125 3126 3126 3127 3127 3128 3128 3129 3129 3130 3131 3132 3133 3133 3133 3134 3134 3134 3134 3134 3135 3136 3136 3137 3138 3138 3139 3140 3140 3140 3141 3143 3147 3153 3158 3158 3158 3158 3157 3156 3155 3154 3153 3153 3153 3154 3154 3154 3154 3155 3157
3109 3108 3108 3107 3107 3107 3106 3106 3105 3105 3104 3104 3105 3105 3106 3106 3106 3107 3106 3106 3106 3106 3107 3108 3108 3109 3110 3112 3113 3114 3115 3117 3118 3119 3120 3122 3123 3124 3126 3126 3127 3127 3128 3128 3129 3129 3130 3130 3131 3132 3132 3133 3133 3134 3133 3134 3134 3134 3135 3135 3136 3137 3138 3138 3139 3140 3140 3141 3142 3144 3151 3157 3158 3157 3157 3156 3156 3155 3154 3154 3153 3153 3153 3153 3153 3153 3154 3155
3108 3108 3108 3107 3107 3106 3106 3106 3106 3106 3105 3105 3106 3106 3106 3107 3107 3107 3107 3107 3107 3108 3108 3109 3109 3110 3111 3112 3113 3114 3115 3117 3118 3119 3120 3122 3123 3124 3125 3126 3127 3127 3128 3128 3129 3129 3130 3130 3131 3132 3133 3133 3133 3134 3133 3134 3134 3134 3134 3135 3135 3136 3136 3136 3137 3139 3140 3141 3143 3143 3149 3156 3156 3156 3156 3156 3155 3155 3154 3154 3154 3153 3153 3153 3153 3153 3153 3153
3108 3108 3107 3107 3107 3106 3107 3107 3107 3107 3106 3106 3107 3107 3107 3108 3108 3108 3108 3109 3109 3109 3109 3110 3110 3111 3112 3113 3114 3115 3116 3117 3119 3119 3120 3121 3122 3124 3125 3126 3127 3127 3128 3128 3129 3129 3130 3130 3131 3132 3133 3134 3134 3134 3134 3134 3134 3135 3134 3134 3135 3135 3136 3135 3136 3137 3139 3142 3143 3144 3149 3154 3155 3155 3155 3155 3154 3154 3154 3154 3154 3153 3152 3151 3151 3151 3152 3152
3108 3108 3107 3107 3107 3107 3107 3107 3107 3107 3107 3107 3108 3108 3108 3108 3108 3109 3109 3109 3109 3110 3110 3111 3111 3112 3113 3114 3115 3116 3116 3117 3119 3120 3120 3121 3122 3124 3125 3125 3126 3127 3128 3128 3128 3129 3129 3130 3131 3132 3134 3135 3135 3135 3134 3134 3134 3135 3135 3134 3134 3135 3135 3136 3136 3137 3139 3142 3142 3143 3148 3152 3154 3154 3154 3154 3154 3154 3153 3153 3153 3152 3152 3151 3150 3150 3150 3151
3108 3108 3107 3107 3107 3107 3107 3107 3108 3108 3108 3108 3109 3109 3109 3109 3109 3109 3109 3110 3110 3111 3111 3111 3112 3113 3114 3114 3115 3116 3116 3117 3119 3120 3121 3122 3123 3123 3124 3125 3126 3127 3127 3128 3128 3129 3129 3130 3130 3131 3132 3133 3133 3133 3133 3134 3134 3135 3135 3134 3134 3135 3135 3136 3136 3137 3139 3141 3142 3143 3147 3150 3152 3152 3153 3153 3153 3153 3153 3153 3152 3152 3152 3151 3150 3150 3149 3149
3109 3108 3108 3107 3107 3107 3107 3107 3108 3108 3108 3109 3109 3109 3109 3109 3109 3109 3110 3110 3111 3111 3112 3112 3113 3113 3114 3115 3115 3116 3116 3117 3118 3120 3121 3122 3122 3123 3124 3125 3126 3126 3127 3127 3128 3128 3129 3130 3130 3130 3130 3130 3131 3131 3132 3133 3134 3134 3135 3135 3135 3135 3135 3136 3137 3138 3139 3141 3142 3144 3146 3148 3150 3151 3151 3152 3152 3153 3153 3152 3152 3152 3152 3152 3151 3150 3149 3149
3109 3109 3108 3108 3108 3108 3108 3108 3108 3108 3108 3109 3109 3109 3109 3109 3109 3110 3110 3111 3111 3112 3112 3113 3113 3114 3114 3115 3115 3116 3116 3117 3118 3119 3121 3121 3122 3123 3123 3124 3125 3126 3126 3127 3127 3128 3128 3129 3129 3129 3130 3130 3130 3131 3132 3132 3133 3134 3134 3135 3135 3135 3135 3136 3136 3138 3139 3140 3142 3144 3145 3147 3148 3149 3150 3150 3151 3151 3151 3152 3152 3152 3152 3151 3151 3151 3150 3150
3109 3109 3109 3109 3109 3108 3108 3108 3108 3108 3108 3108 3109 3109 3109 3110 3110 3110 3111 3111 3111 3112 3113 3113 3114 3114 3115 3115 3116 3116 3117 3117 3118 3119 3120 3121 3122 3122 3123 3123 3124 3124 3125 3126 3126 3127 3127 3128 3128 3129 3129 3129 3130 3131 3131 3132 3133 3134 3134 3134 3135 3135 3136 3136 3137 3137 3138 3139 3141 3143 3144 3145 3146 3147 3148 3149 3149 3149 3150 3150 3151 3151 3151 3151 3151 3151 3151 3150
3110 3110 3109 3109 3109 3109 3109 3108 3108 3109 3109 3109 3109 3109 3109 3110 3110 3110 3111 3111 3111 3112 3113 3113 3114 3114 3115 3115 3116 3116 3117 3117 3118 3119 3120 3120 3121 3122 3122 3123 3123 3123 3124 3125 3125 3126 3126 3127 3127 3128 3128 3129 3130 3130 3131 3132 3132 3133 3134 3134 3134 3135 3136 3136 3137 3138 3138 3139 3140 3142 3143 3144 3145 3146 3147 3148 3148 3148 3148 3149 3150 3150 3151 3150 3150 3150 3150 3150
3110 3110 3110 3109 3109 3109 3109 3108 3108 3109 3109 3109 3109 3109 3109 3110 3110 3110 3110 3111 3111 3112 3112 3113 3113 3113 3114 3115 3115 3116 3117 3117 3118 3119 3119 3120 3121 3121 3122 3122 3122 3123 3123 3124 3125 3125 3126 3126 3126 3127 3128 3129 3129 3130 3131 3131 3132 3132 3133 3133 3134 3134 3135 3136 3137 3138 3139 3140 3141 3141 3142 3143 3143 3144 3146 3147 3147 3148 3147 3147 3148 3149 3150 3149 3149 3149 3149 3149
3111 3111 3110 3110 3110 3110 3109 3109 3109 3109 3109 3109 3109 3109 3109 3110 3110 3110 3110 3110 3111 3111 3112 3112 3112 3113 3113 3113 3114 3115 3116 3116 3117 3118 3119 3119 3120 3120 3120 3121 3121 3122 3122 3123 3124 3124 3125 3125 3125 3126 3128 3129 3129 3130 3130 3131 3132 3132 3132 3132 3133 3133 3134 3135 3136 3137 3138 3139 3140 3141 3142 3142 3142 3143 3144 3146 3146 3147 3147 3147 3147 3147 3148 3148 3149 3148 3148 3148
3111 3111 3111 3111 3111 3111 3110 3110 3109 3109 3109 3109 3109 3109 3109 3109 3109 3109 3109 3109 3110 3111 3111 3111 3111 3112 3112 3112 3113 3113 3114 3115 3116 3116 3117 3118 3118 3119 3119 3119 3120 3120 3121 3122 3123 3123 3124 3125 3125 3126 3128 3129 3129 3130 3130 3131 3131 3131 3131 3131 3132 3132 3133 3134 3135 3136 3137 3138 3139 3140 3140 3140 3140 3142 3143 3144 3145 3145 3146 3146 3146 3145 3146 3147 3147 3147 3147 3147